Location: Jackson
(42.2460°N, 84.4010°W)
Time: 19:29:49
(UTC-04:00)

Courier 1B Rocket - Pass Details

Date: 13 February 2026
Orbit: 920 x 1201 km, 28.2° (Epoch: 12 March)

Event Time Altitude Azimuth Distance (km) Brightness Sun altitude
Rises 21:18:45 0° 222° (SW) 3,602 8.3 -35.7°
Enters shadow 21:21:50 - 207° (SSW) 2,774 7.4 -36.2°
Reaches altitude 10° 21:22:11 10° 204° (SSW) 2,697 - -36.3°
Maximum altitude 21:26:25 18° 163° (SSE) 2,215 - -37.0°
Drops below altitude 10° 21:30:50 10° 123° (ESE) 2,824 - -37.8°
Sets 21:34:32 0° 106° (ESE) 3,838 - -38.5°
